Regional Weather Roundup
Issued by NWS Goodland, KS

Home | Current Version | Previous Version | Text Only | Print | Product List | Glossary Off
Versions: 1 2 3 4 5 6 7 8 9 10 11 12 13 14 15 16 17 18 19 20 21 22 23 24 25 26 27 28 29 30 31 32 33 34 35 36 37 38 39 40 41 42 43 44 45 46 47 48 49 50

737
ASUS43 KGLD 182159
RWRGLD

GOODLAND FORECAST AREA HOURLY WEATHER ROUNDUP
NATIONAL WEATHER SERVICE GOODLAND KS
300 PM MST SAT NOV 18 2017

...OFFICIAL OBSERVATIONS...

CITY           SKY/WX    TMP DP  RH WIND       PRES   REMARKS
GOODLAND KS    SUNNY     47  14  26 N14G26    30.20S
HILL CITY KS   SUNNY     51  22  31 NW20      30.18S
IMPERIAL NEB   SUNNY     47  16  29 NW16      30.18S
MCCOOK NEB     SUNNY     49  19  30 NW24      30.17R
AKRON CO       SUNNY     44  11  26 NW12      30.19S
BURLINGTON CO  SUNNY     46  13  26 N16       30.22R
LIMON CO       SUNNY     41  10  28 VRB6      30.21S
$$

...UNOFFICIAL OBSERVATIONS...

CITY           SKY/WX    TMP DP  RH WIND       PRES   REMARKS
LENORA KS        N/A     49  32  52 N13         N/A
NORTON KS      SUNNY     48  16  27 NW18G24   30.16
SHARON SPRINGS   N/A     47  17  30 NW14G24     N/A
TRENTON NEB      N/A     47  32  56 N10         N/A
KIT CARSON CO    N/A     46  16  29 MISG        N/A
YUMA CO        FAIR      43  14  31 NW17G25   30.19F
$$




USA.gov is the U.S. government's official web portal to all federal, state and local government web resources and services.